Weather History for KTLH - July, 2013

Change the Weather History Date:

Sunday, July 21, 2013

  Actual Average Record
Temperature  
Mean Temperature 82 °F 82 °F  
Max Temperature 90 °F 92 °F 100 °F (1942)
Min Temperature 73 °F 72 °F 60 °F (2009)
Degree Days  
Heating Degree Days 0    
Month to date heating degree days 0  
Since 1 June heating degree days 0  
Since 1 July heating degree days 0  
Cooling Degree Days 17    
Month to date cooling degree days 332  
Year to date cooling degree days 1314  
Since 1 June cooling degree days 852  
Growing Degree Days 32 (Base 50)    
Moisture  
Dew Point 72 °F    
Average Humidity 73    
Maximum Humidity 94    
Minimum Humidity 52    
Precipitation  
Precipitation 0.38 in 0.22 in 4.66 in (1969)
Month to date precipitation 9.89 4.78  
Year to date precipitation 39.60 34.17  
Sea Level Pressure  
Sea Level Pressure 30.05 in    
Wind  
Wind Speed 5 mph (South)    
Max Wind Speed 18 mph    
Max Gust Speed 29 mph    
Visibility 7 miles    
Events Fog , Rain , Thunderstorm    
T = Trace of Precipitation, MM = Missing Value Source: NWS Daily Summary

Daily Weather History Graph

Daily Weather History Graph

Search for Another Location

Airport or City:

Trip Planner

Search our weather history database for the weather conditions in past years. The results will help you decide how hot, cold, wet, or windy it might be!

Date:

Astronomy

Jul. 21, 2013 Rise Set
Actual Time 6:49 AM EDT 8:38 PM EDT
Civil Twilight 6:22 AM EDT 9:04 PM EDT
Nautical Twilight 5:50 AM EDT 9:36 PM EDT
Astronomical Twilight 5:16 AM EDT 10:10 PM EDT
Moon 7:38 PM EDT (7/21) 5:32 AM EDT (7/21)
Length of Visible Light 14h 42m
Length of Day
13h 48m
Waxing Gibbous, 98% of the Moon is Illuminated
Jul 21
Waxing Gibbous
Jul 22
Full
Jul 29
Last Quarter
Aug 6
New
Aug 14
First Quarter

Hourly Weather History & Observations

Time (EDT) Temp. Heat Index Dew Point Humidity Pressure Visibility Wind Dir Wind Speed Gust Speed Precip Events Conditions
12:53 AM 73.9 °F - 71.1 °F 91% 30.07 in 10.0 mi South 3.5 mph - N/A   Clear
1:14 AM 73.4 °F - 71.6 °F 94% 30.07 in 10.0 mi Calm Calm - N/A   Scattered Clouds
1:22 AM 73.4 °F - 71.6 °F 94% 30.07 in 10.0 mi SE 3.5 mph - N/A   Mostly Cloudy
1:53 AM 73.9 °F - 72.0 °F 93% 30.06 in 2.5 mi Calm Calm - N/A   Overcast
2:17 AM 75.2 °F - 71.6 °F 89% 30.05 in 6.0 mi SE 3.5 mph - N/A   Overcast
2:53 AM 75.0 °F - 73.0 °F 94% 30.04 in 7.0 mi ESE 3.5 mph - N/A   Overcast
3:06 AM 75.2 °F - 73.4 °F 94% 30.04 in 1.8 mi ESE 3.5 mph - N/A   Overcast
3:23 AM 75.2 °F - 73.4 °F 94% 30.04 in 0.8 mi ESE 3.5 mph - N/A   Mist
3:50 AM 75.2 °F - 73.4 °F 94% 30.03 in 1.0 mi Calm Calm - N/A   Mist
3:53 AM 75.0 °F - 73.0 °F 94% 30.03 in 0.8 mi Calm Calm - N/A   Mist
4:50 AM 73.4 °F - 71.6 °F 94% 30.03 in 1.8 mi Calm Calm - N/A   Overcast
4:53 AM 73.9 °F - 72.0 °F 93% 30.03 in 3.0 mi Calm Calm - N/A   Overcast
5:02 AM 73.4 °F - 71.6 °F 94% 30.03 in 4.0 mi Calm Calm - N/A   Overcast
5:13 AM 73.4 °F - 71.6 °F 94% 30.03 in 2.0 mi Calm Calm - N/A   Overcast
5:18 AM 73.4 °F - 71.6 °F 94% 30.03 in 3.0 mi Calm Calm - N/A   Overcast
5:28 AM 73.4 °F - 71.6 °F 94% 30.03 in 1.8 mi Calm Calm - N/A   Overcast
5:39 AM 73.4 °F - 71.6 °F 94% 30.02 in 1.0 mi Calm Calm - N/A   Mist
5:48 AM 73.4 °F - 71.6 °F 94% 30.03 in 1.5 mi Calm Calm - N/A   Mostly Cloudy
5:53 AM 73.0 °F - 71.1 °F 93% 30.03 in 3.0 mi Calm Calm - N/A   Mostly Cloudy
6:04 AM 73.4 °F - 71.6 °F 94% 30.03 in 10.0 mi Calm Calm - N/A   Scattered Clouds
6:53 AM 73.0 °F - 71.1 °F 93% 30.04 in 10.0 mi Calm Calm - N/A Fog Patches of Fog
7:53 AM 75.0 °F - 73.0 °F 94% 30.06 in 10.0 mi Calm Calm - N/A   Clear
8:53 AM 79.0 °F - 73.9 °F 84% 30.07 in 10.0 mi SW 4.6 mph - N/A   Clear
9:53 AM 84.0 °F 90.2 °F 73.0 °F 69% 30.08 in 10.0 mi WSW 10.4 mph - N/A   Partly Cloudy
10:53 AM 86.0 °F 90.7 °F 70.0 °F 59% 30.09 in 10.0 mi West 11.5 mph - N/A   Partly Cloudy
11:53 AM 88.0 °F 92.1 °F 69.1 °F 53% 30.09 in 10.0 mi SW 9.2 mph 16.1 mph N/A   Scattered Clouds
12:53 PM 89.1 °F 93.7 °F 69.1 °F 52% 30.06 in 10.0 mi West 8.1 mph - N/A   Scattered Clouds
1:45 PM 80.6 °F 84.6 °F 71.6 °F 74% 30.05 in 6.0 mi SSW 9.2 mph 24.2 mph 0.01 in Rain , Thunderstorm Light Thunderstorms and Rain
1:53 PM 82.0 °F 86.3 °F 71.1 °F 69% 30.05 in 10.0 mi SW 6.9 mph 16.1 mph 0.01 in Rain , Thunderstorm Light Thunderstorms and Rain
2:38 PM 80.6 °F 86.2 °F 75.2 °F 84% 30.05 in 10.0 mi South 6.9 mph - 0.07 in Rain Light Rain
2:53 PM 82.9 °F 90.2 °F 75.0 °F 77% 30.04 in 10.0 mi South 5.8 mph - 0.07 in   Mostly Cloudy
3:10 PM 82.4 °F 89.5 °F 75.2 °F 79% 30.03 in 10.0 mi South 3.5 mph - N/A Thunderstorm Thunderstorm
3:53 PM 82.9 °F 88.8 °F 73.0 °F 72% 30.03 in 10.0 mi North 12.7 mph 16.1 mph N/A Thunderstorm Thunderstorm
4:13 PM 78.8 °F - 73.4 °F 83% 30.04 in 0.8 mi WSW 8.1 mph 24.2 mph 0.18 in Rain , Thunderstorm Heavy Thunderstorms and Rain
4:17 PM 78.8 °F - 73.4 °F 83% 30.04 in 6.0 mi SSW 6.9 mph 17.3 mph 0.24 in Rain , Thunderstorm Heavy Thunderstorms and Rain
4:53 PM 81.0 °F 85.2 °F 72.0 °F 74% 30.02 in 10.0 mi Calm Calm - 0.30 in Thunderstorm Thunderstorm
5:34 PM 84.2 °F 90.9 °F 73.4 °F 70% 30.02 in 10.0 mi ENE 5.8 mph - N/A   Mostly Cloudy
5:53 PM 81.0 °F 86.7 °F 75.0 °F 82% 30.02 in 10.0 mi East 4.6 mph - 0.00 in Rain Light Rain
6:53 PM 82.0 °F 87.9 °F 73.9 °F 76% 30.02 in 10.0 mi East 3.5 mph - 0.00 in   Mostly Cloudy
7:53 PM 84.0 °F 91.9 °F 75.0 °F 74% 30.03 in 10.0 mi Variable 5.8 mph - N/A   Scattered Clouds
8:53 PM 82.0 °F 86.7 °F 72.0 °F 71% 30.05 in 7.0 mi West 5.8 mph - N/A   Scattered Clouds
9:53 PM 81.0 °F 85.2 °F 72.0 °F 74% 30.08 in 10.0 mi West 10.4 mph - N/A   Clear
10:53 PM 79.0 °F - 70.0 °F 74% 30.08 in 10.0 mi West 5.8 mph - N/A   Clear
11:53 PM 75.9 °F - 70.0 °F 82% 30.09 in 10.0 mi South 3.5 mph - N/A   Clear